Tracking 23731 objects as of 27-Sep-2021
HD Live streaming from Space Station
objects crossing your sky now

STARLINK-2293

Track STARLINK-2293 now!
10-day predictions
STARLINK-2293 is classified as:


NORAD ID: 47863
Int'l Code: 2021-021D
Perigee: 553.6 km
Apogee: 555.1 km
Inclination: 53.1 °
Period: 95.6 minutes
Semi major axis: 6925 km
RCS: Unknown
Launch date: March 14, 2021
Source: United States (US)
Launch site: AIR FORCE EASTERN TEST RANGE (AFETR)
aabbcc
Your satellite tracking list
Your tracking list is empty




NASA's NSSDC Master Catalog

Two Line Element Set (TLE):
1 47863U 21021D   21269.57200094  .00001622  00000-0  12777-3 0  9999
2 47863  53.0570   7.0506 0001027 119.8178 240.2914 15.06398032 31253
Source of the keplerian elements: AFSPC